{"data":{"norad_id":69158,"intl_designator":"2026-111L","name":"STARLINK-37363","alt_names":[],"object_type":"PAYLOAD","status":"ACTIVE","operator":null,"country":"US","launch_date":"2026-05-21","launch_site_code":"AFETR","launch_vehicle":null,"mission":null,"orbit_class":"UNKNOWN","rcs_meters":null,"size_class":null,"mass_kg":null,"dimensions":null,"purposes":["comms"],"wikipedia_slug":null,"has_3d_model":false,"image_url":null,"decayed_at":null,"tle_current":{"epoch":"2026-09-19T22:56:50.674848Z","epoch_age_seconds":70172,"freshness":"FRESH","line1":"1 69158U 26111L   26262.95614207  .00003391  00000+0  11157-3 0  9995","line2":"2 69158  53.1570  68.3704 0001481 338.3678  21.7262 15.34370687 18814","mean_motion":15.34370687,"eccentricity":0.0001481,"inclination_deg":53.157,"raan_deg":68.3704,"arg_perigee_deg":338.3678,"mean_anomaly_deg":21.7262,"bstar":0.00011157,"rev_number":1881,"period_min":93.849550972294,"perigee_km":461.77722466467,"apogee_km":463.80350735048,"semimajor_km":6840.9273660076,"source":"CELESTRAK","updated_at":"2026-09-20T09:00:44.091383Z"}}}